Regional Weather Roundup
Issued by NWS Sioux Falls, SD

Home | Current Version | Previous Version | Graphics & Text | Print | Product List | Glossary On
Versions: 1 2 3 4 5 6 7 8 9 10 11 12 13 14 15 16 17 18 19 20 21 22 23 24 25 26 27 28 29 30 31 32 33 34 35 36 37 38 39 40 41 42 43 44 45 46 47 48 49 50
269
ASUS43 KFSD 252310
RWRFSD

WEATHER ROUNDUP FOR SE SOUTH DAKOTA/SW MINNESOTA/NW IOWA
NATIONAL WEATHER SERVICE SIOUX FALLS SD
600 PM CDT SAT MAR 25 2017

NOTE: "FAIR" INDICATES FEW OR NO CLOUDS BELOW 12,000 FEET WITH NO
SIGNIFICANT WEATHER AND OR OBSTRUCTIONS TO VISIBILITY.


SDZ038>040-050-052>070-260000-
SOUTHEAST SOUTH DAKOTA

CITY           SKY/WX    TMP DP  RH WIND       PRES   REMARKS
CHAMBERLAIN    SUNNY     52  38  58 E14       29.93F
HURON          SUNNY     47  36  65 E9        29.98F
MADISON        CLOUDY    39  39 100 E12       29.99S
MITCHELL       CLOUDY    46  37  71 E14       29.99S
SIOUX FALLS    CLOUDY    42  38  85 E9        30.00S
WINNER         FAIR      59  32  36 SE14      29.90F
YANKTON        CLOUDY    43  37  81 NE9       29.98S
$$

MNZ071-072-080-081-089-090-097-098-260000-
SOUTHWEST MINNESOTA

CITY           SKY/WX    TMP DP  RH WIND       PRES   REMARKS
FAIRMONT       LGT RAIN  38  37  97 NE12      30.01S FOG
JACKSON        LGT RAIN  36  36 100 E13       30.00S
LUVERNE        CLOUDY    37  36  93 E13       30.00R
MARSHALL       CLOUDY    40  37  89 E12       30.03S
MONTEVIDEO     CLOUDY    39  36  87 E9        30.06F
PIPESTONE      CLOUDY    39  34  81 E9        29.99S
REDWOOD FALLS  CLOUDY    42  35  76 E10       30.03F
TRACY          CLOUDY    41  38  87 E9        30.02S
WINDOM         CLOUDY    37  37 100 NE13      30.01S FOG
WORTHINGTON    MIX PCPN  37  36  96 E13       29.99S FOG
$$

IAZ001>003-012>014-020>022-031-032-NEZ013-014-SDZ071-260000-
NORTHWEST IOWA

CITY           SKY/WX    TMP DP  RH WIND       PRES   REMARKS
CHEROKEE       CLOUDY    39  38  97 NE9       29.97R
ESTHERVILLE    CLOUDY    37  37 100 NE14      29.98F FOG
LE MARS        CLOUDY    41  37  87 E10       29.98S
ORANGE CITY    CLOUDY    39  37  93 E7        29.97S FOG
SHELDON        CLOUDY    37  37 100 NE15G21   29.96S FOG
SIOUX CITY     CLOUDY    41  38  89 NE10      29.97S
SPENCER        CLOUDY    39  37  92 NE18      29.98S
STORM LAKE     CLOUDY    37  37 100 NE18G24   29.95R
$$

ABBREVIATIONS USED IN REMARKS
   TC - TEMPERATURE IN CELSIUS
  WCI - WIND CHILL INDEX
   HX - HEAT INDEX
  VSB - VISIBILITY





USA.gov is the U.S. government's official web portal to all federal, state and local government web resources and services.